Tracking 19854 objects as of 23-Sep-2019
HD Live streaming from Space Station
objects crossing your sky now

FENGYUN 1C DEB

Track FENGYUN 1C DEB now!
10-day predictions


NORAD ID: 37714
Int'l Code: 1999-025EMF
Perigee: 808.6 km
Apogee: 901.1 km
Inclination: 98.9 °
Period: 101.9 minutes
Semi major axis: 7225 km
RCS: 0.001 m2 (small)
Launch date: May 10, 1999
Source: People's Republic of China (PRC)
Launch site: Taiyaun Space Center, China (TSC)

Note: This is SATELLITE DEBRIS
aabbcc
Your satellite tracking list
Your tracking list is empty




NASA's NSSDC Master Catalog

Two Line Element Set (TLE):
1 37714U 99025EMF 19266.14045768  .00000514  00000-0  29125-3 0  9998
2 37714  98.9493 336.5233 0063958 100.1166 260.7229 14.13417147566139
Source of the keplerian elements: AFSPC